Vorticity
nan nan nan nan nan nan nan nan nan nan nan nan nan nan nan nan nan nan nan nan nan nan nan nan nan nan nan nan nan nan nan nan nan nan nan nan nan nan nan nan nan nan nan nan
nan 10 10 9 8 9 7 7 7 8 10 8 14 12 14 8 6 5 6 7 6 7 11 10 9 7 8 8 6 7 7 8 5 5 8 9 9 8 8 7 8 8 10 nan
nan 9 13 8 6 9 8 6 8 11 7 6 10 10 13 9 8 9 7 7 8 8 8 9 9 7 7 8 8 7 7 6 7 5 5 6 7 8 9 9 10 9 8 nan
nan 12 8 7 8 10 8 10 7 7 6 11 4 9 13 17 8 6 8 7 8 7 7 9 7 8 8 7 8 8 8 7 7 7 6 7 6 7 7 7 6 7 8 nan
nan 11 9 6 10 5 7 12 8 5 8 9 6 11 17 18 9 10 8 7 7 8 8 8 8 7 7 8 8 8 9 7 8 8 6 5 5 6 7 6 6 8 8 nan
nan 3 11 12 13 3 8 9 6 7 8 8 16 7 8 15 15 10 11 9 8 9 9 8 9 8 8 8 8 8 8 7 8 8 8 7 5 5 5 7 9 8 8 nan
nan 7 3 9 8 13 10 7 6 7 13 10 11 7 7 4 16 17 12 10 10 8 9 10 9 7 9 8 6 7 9 7 8 8 7 7 6 8 7 7 7 7 8 nan
nan 12 10 7 11 12 7 6 6 8 6 10 8 6 18 16 13 14 12 13 9 8 9 11 9 7 8 8 7 7 8 8 8 9 7 7 8 6 8 8 8 9 8 nan
nan 8 12 12 12 7 11 9 7 3 8 13 5 4 12 25 22 13 11 11 11 10 9 9 8 8 8 9 9 7 8 8 8 8 8 8 9 8 8 9 7 7 8 nan
nan 13 9 10 7 8 14 3 7 14 13 6 8 11 12 16 13 10 12 9 8 10 9 10 10 9 8 9 10 10 9 8 7 8 8 9 9 9 9 9 8 7 10 nan
nan 7 12 12 12 8 -1 6 9 14 10 10 9 9 17 12 10 11 7 9 9 10 9 8 9 10 10 10 11 9 9 8 8 9 9 9 11 10 9 8 10 10 12 nan
nan 4 14 7 7 16 12 8 6 6 7 9 12 9 16 18 13 8 9 12 10 8 11 9 9 9 10 10 10 10 9 8 9 10 10 10 9 10 8 9 11 11 10 nan
nan 5 5 6 9 18 13 10 6 7 15 14 4 7 8 13 15 11 10 9 11 9 7 9 11 10 10 10 9 10 10 9 10 11 10 11 10 9 9 10 11 12 11 nan
nan 16 10 -1 7 10 10 10 9 6 6 12 3 10 10 9 9 11 11 10 12 11 8 6 7 9 9 10 10 10 9 12 12 11 11 9 9 9 11 11 13 12 9 nan
nan 5 17 8 -2 0 9 8 9 5 9 8 12 8 7 13 15 17 17 11 8 12 9 6 6 9 10 10 8 9 11 12 12 11 10 9 8 11 13 13 10 9 9 nan
nan 21 13 12 15 2 0 4 8 7 8 9 12 8 13 10 12 16 18 14 10 11 12 9 5 7 10 10 8 7 11 11 10 11 10 10 11 12 10 11 10 9 9 nan
nan 18 17 11 13 14 13 15 6 11 10 11 6 8 9 10 9 12 17 15 11 7 9 11 10 7 9 12 13 11 9 11 11 11 11 10 10 10 10 10 9 9 8 nan
nan 10 14 17 8 11 13 21 13 10 4 5 8 16 8 8 11 11 16 17 8 10 8 8 10 10 12 12 13 16 15 11 11 11 10 10 10 10 10 9 8 8 9 nan
nan -2 13 19 -1 3 18 15 13 9 5 14 10 8 9 10 10 12 17 17 14 10 11 13 12 9 15 14 12 11 11 12 11 10 10 11 11 9 8 8 8 7 8 nan
nan 4 2 9 19 7 5 10 10 13 14 13 16 9 7 9 7 12 17 14 19 13 15 14 11 13 13 14 14 10 10 10 10 11 10 11 11 10 8 9 6 8 10 nan
nan 20 13 6 7 11 17 11 8 8 14 13 12 13 11 5 9 12 6 12 15 18 17 14 16 12 9 12 11 10 11 10 11 12 13 12 11 9 8 7 8 12 11 nan
nan 10 10 12 8 15 11 15 10 -1 13 13 9 13 12 9 6 13 11 12 12 12 9 9 11 12 13 11 10 12 9 11 13 11 10 9 9 9 11 8 9 12 10 nan
nan 10 17 16 3 9 15 10 11 13 11 8 9 14 15 11 14 13 13 13 13 8 6 10 12 10 9 12 11 10 12 13 11 10 8 8 9 11 12 9 7 8 10 nan
nan 8 11 11 20 13 6 13 18 13 13 9 10 12 13 13 12 11 14 13 13 13 9 9 10 9 9 10 13 13 12 10 10 9 8 9 9 7 8 10 11 10 8 nan
nan 5 15 7 4 11 16 16 9 10 13 12 14 18 11 8 12 10 11 12 12 10 10 12 10 10 9 10 13 13 10 9 9 10 9 7 8 7 6 11 15 12 12 nan
nan nan nan nan nan nan nan nan nan nan nan nan nan nan nan nan nan nan nan nan nan nan nan nan nan nan nan nan nan nan nan nan nan nan nan nan nan nan nan nan nan nan nan nan
CAPE
0 0 0 0 0 0 0 0 2 0 16 64 287 654 569 456 317 279 142 215 198 126 80 4 0 0 0 0 0 0 0 0 0 0 0 0 0 0 0 0 0 235 29 7
0 0 0 0 0 0 0 0 0 0 0 28 371 636 645 495 343 233 202 172 144 67 18 2 0 0 0 0 0 0 0 0 0 0 0 0 0 0 0 8 103 55 93 133
0 0 0 0 0 0 0 0 0 0 0 7 295 306 636 566 485 356 274 144 75 54 0 0 0 0 0 0 0 0 0 0 0 0 0 0 0 23 28 41 24 0 0 41
0 0 0 0 0 0 0 0 0 0 0 2 27 3 166 401 420 379 313 241 84 22 1 0 0 0 0 0 0 0 0 0 0 0 0 0 0 12 20 21 0 24 246 196
0 0 0 0 0 0 0 0 0 0 0 0 0 0 0 112 289 279 332 266 163 53 6 0 9 0 0 0 0 0 0 0 0 0 0 0 0 17 33 47 92 148 267 810
0 0 0 0 0 0 0 0 0 0 0 0 0 0 0 3 60 148 209 258 171 100 36 11 12 17 0 0 0 0 0 0 0 0 0 0 17 24 75 257 430 440 448 627
0 0 0 0 0 0 0 0 0 0 0 0 0 0 0 0 0 21 70 163 214 119 65 36 48 36 6 0 0 0 0 0 0 1 0 15 23 38 139 287 368 293 250 590
0 0 0 0 0 0 0 0 0 0 0 0 0 0 1 0 0 0 2 29 114 104 20 65 96 74 41 24 7 0 0 0 0 1 115 104 35 44 66 90 208 598 1005 799
0 0 0 0 0 0 0 0 0 0 0 0 0 0 0 0 0 0 0 3 24 11 20 83 102 88 53 48 36 12 11 0 0 56 137 153 212 265 393 624 965 1217 1068 878
0 0 0 0 0 0 0 0 0 0 0 0 0 0 0 0 0 0 0 0 0 0 9 105 152 148 117 89 65 41 64 45 26 58 131 314 474 397 543 753 958 1047 1130 1579
0 0 0 0 0 0 0 0 0 0 0 0 0 0 0 0 0 0 0 0 0 0 1 31 85 108 137 136 114 131 163 196 148 133 292 405 806 1127 1123 1193 1273 1250 1595 1237
0 0 0 0 0 0 0 0 0 0 0 0 0 0 0 0 0 0 0 0 0 0 0 0 41 38 37 75 106 143 362 484 597 613 809 1019 968 1229 1377 1410 1318 1301 1365 692
0 0 0 0 0 0 0 0 0 0 0 0 0 0 0 0 0 0 0 0 0 0 0 0 10 15 25 69 86 98 226 551 754 931 1125 1173 1108 1244 1373 1402 1609 1380 327 5
0 0 0 0 0 0 0 0 0 0 0 0 0 0 0 0 0 0 0 0 0 0 0 0 0 0 0 14 25 11 78 349 659 940 1038 1156 1203 1323 1311 1600 1361 281 5 0
0 0 0 0 0 0 0 0 0 0 0 0 0 0 0 0 0 0 0 0 0 0 0 0 0 0 0 0 0 0 17 358 685 1050 1133 1214 1313 1433 1478 919 97 3 0 0
0 0 0 0 0 0 0 0 0 0 0 0 0 0 0 0 0 0 0 0 0 0 0 0 0 0 0 0 0 0 9 533 934 1194 1242 1336 1418 841 591 186 3 0 0 0
0 0 0 0 0 0 0 0 0 0 0 0 0 0 0 0 0 0 0 0 0 0 0 0 0 0 0 0 0 0 13 718 1123 1356 1505 1377 832 386 79 0 0 0 0 0
0 0 0 0 0 0 0 0 0 0 0 0 0 0 0 0 0 0 0 0 0 0 0 0 0 0 0 0 0 5 613 1003 1367 1423 1392 884 482 48 1 0 0 0 0 0
0 0 0 0 0 0 0 0 0 0 0 0 0 0 0 0 0 0 0 0 0 0 0 0 0 0 0 0 188 996 1365 1493 1395 1249 897 578 103 1 0 0 0 0 0 0
0 0 0 0 0 0 0 0 0 0 0 0 0 0 0 0 0 0 0 0 0 0 0 0 2 683 555 760 1265 1394 1365 1303 1215 842 573 184 0 0 0 0 0 0 0 0
0 0 0 0 0 0 0 0 0 0 0 0 0 0 0 0 0 0 0 0 39 406 852 871 1066 1152 1203 1330 1141 1017 1101 1152 717 318 23 0 0 0 0 0 0 0 0 0
0 0 0 0 0 0 0 0 0 0 0 0 0 0 0 0 0 0 0 1 517 1037 1262 1442 1587 1530 1406 1194 1005 839 998 262 7 0 0 0 0 0 0 0 0 0 0 0
0 0 0 0 0 0 0 0 0 0 0 0 0 0 0 0 0 0 0 168 678 1088 1322 1487 1487 1219 1007 1013 969 940 41 0 0 0 0 0 0 0 0 0 0 0 0 0
0 0 0 0 0 0 0 0 0 0 0 0 0 0 0 0 0 174 204 764 1113 1214 1479 1558 1285 1137 926 684 659 43 0 0 0 0 0 0 0 0 0 0 0 0 0 0
0 0 0 0 0 0 0 0 0 0 0 0 0 0 0 0 246 695 947 1187 1362 1585 1659 1449 1337 1094 767 130 3 0 0 0 0 0 0 0 0 0 0 0 0 0 0 0
0 0 0 0 0 0 0 0 0 0 0 0 0 0 0 203 552 808 1029 1319 1645 1735 1523 1340 1073 783 51 0 0 0 0 0 0 0 0 0 0 0 0 0 0 0 0 0